This demonstration page uses our WeatherBlox Daily Observations layout. Learn more.

39.29038, -76.61219

Hourly Observations for October 24, 2015

Temp ( °F °C ) Dew Point ( °F °C ) Humidity (%) Winds ( mph kmh ) Pressure ( in mb ) Visibility ( mi km ) Precip ( " mm )
12:54 am 00:54 undefined 53 11.7 33 0.6 47 47 undefined N/A 30.31 1026 N/A 0 0
1:54 am 01:54 undefined 52 11.1 33 0.6 49 49 undefined N/A 30.33 1027 N/A 0 0
2:54 am 02:54 undefined 50 10 37 2.8 61 61 undefined N/A 30.33 1027 N/A 0 0
3:54 am 03:54 undefined 49 9.4 37 2.8 64 64 undefined N/A 30.32 1027 N/A 0 0
4:54 am 04:54 undefined 48 8.9 37 2.8 66 66 undefined N/A 30.32 1027 N/A 0 0
5:54 am 05:54 undefined 48 8.9 38 3.3 68 68 undefined N/A 30.33 1027 N/A 0 0
6:54 am 06:54 undefined 47 8.3 36 2.2 66 66 undefined N/A 30.34 1027 N/A 0 0
7:54 am 07:54 undefined 46 7.8 36 2.2 68 68 undefined N/A 30.35 1028 N/A 0 0
8:54 am 08:54 undefined 47 8.3 37 2.8 69 69 undefined N/A 30.36 1028 N/A 0 0
9:54 am 09:54 undefined 50 10 40 4.4 68 68 undefined N/A 30.37 1028 N/A 0 0
10:54 am 10:54 undefined 52 11.1 42 5.6 69 69 undefined N/A 30.35 1028 N/A 0 0
11:54 am 11:54 undefined 55 12.8 43 6.1 64 64 undefined N/A 30.35 1028 N/A 0 0
12:54 pm 12:54 undefined 56 13.3 45 7.2 67 67 undefined N/A 30.34 1027 N/A 0 0
1:54 pm 13:54 undefined 57 13.9 46 7.8 67 67 undefined N/A 30.3 1026 N/A 0 0
2:54 pm 14:54 undefined 58 14.4 46 7.8 65 65 undefined N/A 30.29 1026 N/A 0 0
3:54 pm 15:54 undefined 60 15.6 43 6.1 53 53 undefined N/A 30.27 1025 N/A 0 0
4:54 pm 16:54 undefined 59 15 45 7.2 60 60 undefined N/A 30.26 1025 N/A 0 0
5:54 pm 17:54 undefined 59 15 46 7.8 62 62 undefined N/A 30.24 1024 N/A 0 0
6:54 pm 18:54 undefined 59 15 47 8.3 64 64 undefined N/A 30.24 1024 N/A 0 0
7:54 pm 19:54 undefined 59 15 48 8.9 67 67 undefined N/A 30.23 1024 N/A 0 0
8:54 pm 20:54 undefined 59 15 49 9.4 69 69 undefined N/A 30.22 1024 N/A 0 0
9:54 pm 21:54 undefined 59 15 49 9.4 69 69 undefined N/A 30.22 1023 N/A 0 0
10:54 pm 22:54 undefined 59 15 50 10 72 72 undefined N/A 30.2 1023 N/A 0 0
11:54 pm 23:54 undefined 59 15 51 10.6 75 75 undefined N/A 30.18 1022 N/A 0 0

Powered by AerisWeather